Location: Unspecified
(50.1700°N, 6.8600°E)
Time: 15:01:58
(UTC+00:00)

Cosmos 2263 Rocket - Pass Details

Date: 24 January 2019
Orbit: 824 x 848 km, 71.0° (Epoch: 17 October)

Event Time Altitude Azimuth Distance (km) Brightness Sun altitude
Exits shadow 04:32:45 - 349° (N) 2,694 4.7 -26.1°
Enters shadow 05:40:35 -67° 283° (WNW) 12,636 8.1 -15.3°
Maximum altitude 06:21:36 25° 41° (NE) 1,645 4.0 -9.0°
